Airfield :
LOGIN :

Register | Disclaimer

   EN    FR    IT 

 










Legend :    VFR   Marginal VFR   IFR   Intensive IFR   Very Intensive IFR
Visi :
Ceiling :
>= 8 km
>= 3000ft
5 to 8 km
1000 to 3000 ft
1500m to 5 km
500 to 1000 ft
800 to 1500m
200 to 500 ft
< 800m
< 200 ft
Symbols :   Thunderstorms  Fog  Heavy snow  Heavy precipitations  Wind > 20 kt
SIGMETs :     Misc.  Thunderstorms  Icing  Turbulence  Mountain Waves  Volcanic Ashes







- Airport Elevation : 18 ft
- IATA code : AJA
- Download approach charts


LFKJ - Ajaccio

CURRENT METAR :
  • 182100Z AUTO 04004KT 8000 FEW025 BKN042 11/09 Q1017 NOSIG

EXPIRED METARs :
  • 182030Z AUTO 05005KT 7000 FEW026 BKN040 OVC050 11/09 Q1017 NOSIG
  • 182000Z AUTO 05004KT 7000 OVC024 12/10 Q1017 NOSIG
  • 181930Z AUTO 05004KT 5000 BR FEW024 SCT041 12/10 Q1017 NOSIG
  • 181900Z AUTO 05004KT 8000 FEW033 SCT039 BKN046 12/10 Q1017 NOSIG
  • 181830Z AUTO 06004KT 8000 BKN030 OVC035 13/10 Q1017 NOSIG

TAF TAF LFKJ
Valid from the 18 at 21:00 until the 19 at 21:00 UTC


182000Z 1821/1921 05005KT 9999 FEW025
BECMG 1910/1912 22010KT
ATIS : +33 4 95 23 59 85
No reported NOTAMs for that airfield.



MET'MAP, your aeronautical weather chart ! - Copyright ORBIFLY December 2007 - Disclaimer

ORBIFLY MET'MAP TEAM :

Programming & Development : Alexandra Zaïnal
Concept & Development : Baudouin d'Aumeries
Co-Development & Prog : Marc-Olivier Méhu
Technical & hardware support : Manuel Goepfert

Contact : metmap@orbifly.com




SOURCES & CREDITS :

   NOAA